Location: Newark
(33.7333°N, 7.5167°E)
Time: 23:25:49
(UTC+00:00)

N. Korean satellite - Visible Passes

Search period start: 16 November 2019 00:00
Search period end: 26 November 2019 00:00
Orbit: 456 x 506 km, 97.2° (Epoch: 16 November)

Date Brightness Start Highest point End Pass type
(mag) Time Alt. Az. Time Alt. Az. Time Alt. Az.
16 Nov 10.1 04:22:55 10° ENE 04:24:50 14° E 04:26:43 10° SE visible
17 Nov 6.6 05:29:17 10° N 05:32:58 65° WNW 05:36:34 10° SSW visible
17 Nov 9.9 17:35:14 10° SW 17:37:30 16° W 17:39:47 10° NW visible
18 Nov 7.6 05:03:59 10° NNE 05:07:36 52° E 05:11:09 10° S visible
18 Nov 8.5 17:08:42 10° SSW 17:12:00 34° W 17:15:22 10° NNW visible
19 Nov 9.3 04:39:11 10° NE 04:42:09 23° E 04:45:04 10° SSE visible
20 Nov 10.3 04:15:56 10° E 04:16:36 10° E 04:17:15 10° ESE visible
21 Nov 6.5 05:21:07 10° N 05:24:48 85° WNW 05:28:25 10° SSW visible
21 Nov 9.6 17:26:31 10° SW 17:29:16 20° W 17:32:04 10° NW visible
22 Nov 8.1 04:55:57 10° NNE 04:59:25 39° E 05:02:48 10° SSE visible
22 Nov 7.9 17:00:18 10° S 17:03:47 45° W 17:07:21 10° NNW visible
23 Nov 9.7 04:31:22 10° NE 04:33:54 18° E 04:36:24 10° SE visible
24 Nov 6.8 05:38:25 10° N 05:41:56 46° WNW 05:45:23 10° SSW visible
24 Nov 10.1 17:45:04 10° WSW 17:46:33 12° W 17:48:04 10° WNW visible
25 Nov 6.8 05:12:56 10° NNE 05:16:35 73° E 05:20:09 10° S visible
25 Nov 9.1 17:17:54 10° SSW 17:21:01 26° W 17:24:09 10° NW visible
